Regional Weather Roundup
Issued by NWS

Home | Current Version | Previous Version | Graphics & Text | Print | Product List | Glossary On
Versions: 1 2 3 4 5 6 7 8 9 10 11 12 13 14 15 16 17 18 19 20 21 22 23 24 25 26 27 28 29 30 31 32 33 34 35 36 37 38 39 40 41 42 43 44 45 46 47 48 49 50
000
ASUS43 KBIS 252210
RWRND

NORTH DAKOTA REGIONAL WEATHER ROUNDUP
NATIONAL WEATHER SERVICE BISMARCK ND
400 PM CST TUE NOV 25 2014

NOTE: "FAIR" INDICATES FEW OR NO CLOUDS BELOW 12,000 FEET WITH NO
SIGNIFICANT WEATHER AND/OR OBSTRUCTIONS TO VISIBILITY.


NDZ001>003-009>011-017-252300-
NORTHWEST NORTH DAKOTA

CITY           SKY/WX    TMP DP  RH WIND       PRES   REMARKS
WILLISTON      CLOUDY    30  26  85 N22       29.78R WCI  17
MINOT          SNOW      25  21  86 NE17      29.77R VSB 1/4 WCI  11
MINOT AFB      SNOW      23  23 100 E16       29.79R VSB 1/2 WCI  10
$$

NDZ018>021-031>035-040>046-252300-
SOUTHWEST NORTH DAKOTA

CITY           SKY/WX    TMP DP  RH WIND       PRES   REMARKS
BISMARCK       LGT SNOW  32  31  96 S7        29.70S VSB 3/4
DICKINSON      CLOUDY    35  30  82 NW21      29.68R
GARRISON         N/A     31  30  96 E7        29.68R
HETTINGER ARPT MOCLDY    36  29  75 NW21G29   29.72R
$$

NDZ004>008-012>016-024-026-027-054-252300-
NORTHEAST NORTH DAKOTA

CITY           SKY/WX    TMP DP  RH WIND       PRES   REMARKS
GRAND FORKS    CLOUDY    21  15  78 NE12      29.95R WCI   9
GRND FRKS AFB  CLOUDY    19  15  83 NE9       29.94R WCI   8
DEVILS LAKE    CLOUDY    19  10  68 E16       29.84R WCI   5
$$

NDZ022-023-025-028>030-036>039-047>053-252300-
SOUTHEAST NORTH DAKOTA

CITY           SKY/WX    TMP DP  RH WIND       PRES   REMARKS
FARGO          CLOUDY    27  18  69 SE12      29.91S WCI  17
JAMESTOWN      LGT SNOW  29  25  85 SE13      29.79S VSB 3/4 WCI  19
$$



USA.gov is the U.S. government's official web portal to all federal, state and local government web resources and services.